Weather History for KIZG - November, 2012

Change the Weather History Date:

Wednesday, November 14, 2012

  Actual Average Record
Temperature  
Mean Temperature 32 °F -  
Max Temperature 44 °F 42 °F 61 °F (2011)
Min Temperature 21 °F 24 °F 8 °F (1996)
Degree Days  
Heating Degree Days 32    
Moisture  
Dew Point 22 °F    
Average Humidity 73    
Maximum Humidity 92    
Minimum Humidity 38    
Precipitation  
Precipitation 0.00 in - - ()
Sea Level Pressure  
Sea Level Pressure 30.53 in    
Wind  
Wind Speed 2 mph (NNW)    
Max Wind Speed 10 mph    
Max Gust Speed 16 mph    
Visibility 10 miles    
Events Rain    
Averages and records for this station are not official NWS values.
T = Trace of Precipitation, MM = Missing Value Source: NWS Daily Summary

Daily Weather History Graph

Daily Weather History Graph

Search for Another Location

Airport or City:

Trip Planner

Search our weather history database for the weather conditions in past years. The results will help you decide how hot, cold, wet, or windy it might be!

Date:

Astronomy

Nov. 14, 2012 Rise Set
Actual Time 6:38 AM EST 4:18 PM EST
Civil Twilight 6:06 AM EST 4:49 PM EST
Nautical Twilight 5:31 AM EST 5:24 PM EST
Astronomical Twilight 4:57 AM EST 5:58 PM EST
Moon 7:25 AM EST (11/14) 5:01 PM EST (11/14)
Length of Visible Light 10h 42m
Length of Day
9h 40m
New Moon, 1% of the Moon is Illuminated
Nov 14
New Moon
Nov 20
First Quarter
Nov 28
Full
Dec 6
Last Quarter
Dec 13
New

Hourly Weather History & Observations

Time (EST) Temp. Windchill Dew Point Humidity Pressure Visibility Wind Dir Wind Speed Gust Speed Precip Events Conditions
12:54 AM 26.1 °F - 24.1 °F 92% 30.46 in 10.0 mi Calm Calm - N/A   Clear
1:54 AM 24.1 °F - 21.9 °F 91% 30.48 in 10.0 mi Calm Calm - N/A   Clear
2:54 AM 24.1 °F - 21.9 °F 91% 30.48 in 10.0 mi Calm Calm - N/A   Clear
3:54 AM 21.9 °F - 19.9 °F 92% 30.50 in 10.0 mi Calm Calm - N/A   Clear
4:54 AM 21.9 °F - 19.9 °F 92% 30.52 in 10.0 mi Calm Calm - N/A   Clear
5:54 AM 21.0 °F - 19.0 °F 92% 30.54 in 10.0 mi Calm Calm - N/A   Clear
7:54 AM 27.0 °F - 25.0 °F 92% 30.58 in 10.0 mi Calm Calm - 0.00 in   Clear
8:54 AM 35.1 °F - 28.9 °F 78% 30.58 in 10.0 mi Calm Calm - 0.00 in Rain Light Rain
9:54 AM 37.9 °F - 24.1 °F 57% 30.58 in 10.0 mi Calm Calm - 0.00 in Rain Light Rain
10:54 AM 41.0 °F 38.0 °F 21.9 °F 47% 30.56 in 10.0 mi Variable 4.6 mph - 0.00 in   Clear
11:54 AM 43.0 °F 37.2 °F 19.0 °F 38% 30.53 in 10.0 mi NNE 10.4 mph - N/A   Clear
12:54 PM 44.1 °F 38.6 °F 19.9 °F 38% 30.52 in 10.0 mi NNE 10.4 mph - N/A   Clear
1:54 PM 44.1 °F 38.6 °F 19.9 °F 38% 30.51 in 10.0 mi NNE 10.4 mph 16.1 mph N/A   Clear
2:54 PM 43.0 °F 37.7 °F 19.9 °F 40% 30.52 in 10.0 mi North 9.2 mph - N/A   Clear
3:54 PM 41.0 °F 35.8 °F 21.0 °F 45% 30.52 in 10.0 mi North 8.1 mph - N/A   Clear
4:54 PM 37.0 °F 32.4 °F 21.0 °F 52% 30.53 in 10.0 mi North 5.8 mph - N/A   Clear
5:54 PM 35.1 °F 30.1 °F 21.9 °F 59% 30.54 in 10.0 mi NNW 5.8 mph - N/A   Clear
6:54 PM 28.0 °F 24.2 °F 23.0 °F 81% 30.56 in 10.0 mi NW 3.5 mph - N/A   Clear
7:54 PM 25.0 °F - 21.9 °F 88% 30.57 in 10.0 mi Calm Calm - N/A   Clear
8:54 PM 24.1 °F - 21.9 °F 91% 30.56 in 10.0 mi Calm Calm - N/A   Clear
9:54 PM 23.0 °F 18.4 °F 21.0 °F 92% 30.55 in 10.0 mi West 3.5 mph - N/A   Clear
10:54 PM 21.9 °F - 19.9 °F 92% 30.55 in 10.0 mi Calm Calm - N/A   Clear
11:54 PM 21.0 °F 14.6 °F 19.0 °F 92% 30.55 in 10.0 mi WNW 4.6 mph - N/A   Clear